Greenville, ME

2:22 PM EDT on March 23, 2017 (GMT -0400)
Greenville

Weather History for KGNR - March, 2013

Change the Weather History Date:

Wednesday, March 27, 2013

  Actual Average (KMLT) Record (KMLT)
Temperature  
Mean Temperature 33 °F -  
Max Temperature 36 °F 44 °F 65 °F (1986)
Min Temperature 30 °F 21 °F -11 °F (1923)
Degree Days  
Heating Degree Days 32    
Moisture  
Dew Point 31 °F    
Average Humidity 92    
Maximum Humidity 96    
Minimum Humidity 85    
Precipitation  
Precipitation 0.19 in - - ()
Sea Level Pressure  
Sea Level Pressure 29.74 in    
Wind  
Wind Speed 8 mph (NNW)    
Max Wind Speed 14 mph    
Max Gust Speed 23 mph    
Averages and records for this station are not official NWS values.
T = Trace of Precipitation, MM = Missing Value Source: NWS Daily Summary

Daily Weather History Graph

Daily Weather History Graph

Search for Another Location

Airport or City:

Trip Planner

Search our weather history database for the weather conditions in past years. The results will help you decide how hot, cold, wet, or windy it might be!

Date:

Astronomy

Mar. 27, 2013 Rise Set
Actual Time 6:27 AM EDT 7:00 PM EDT
Civil Twilight 5:57 AM EDT 7:30 PM EDT
Nautical Twilight 5:22 AM EDT 8:05 PM EDT
Astronomical Twilight 4:46 AM EDT 8:41 PM EDT
Moon 7:44 PM EDT (3/27) 6:14 AM EDT (3/27)
Length of Visible Light 13h 32m
Length of Day
12h 32m
Full, 100% of the Moon is Illuminated
Mar 27
Full
Apr 3
Last Quarter
Apr 10
New
Apr 18
First Quarter
Apr 25
Full

Hourly Weather History & Observations

Time (EDT) Temp. Windchill Dew Point Humidity Pressure Visibility Wind Dir Wind Speed Gust Speed Precip Events Conditions
12:56 AM 30.0 °F 22.4 °F 26.1 °F 85% 29.67 in - NW 8.1 mph 16.1 mph N/A   Unknown
1:56 AM 30.9 °F 21.7 °F 27.0 °F 85% 29.66 in - NNW 11.5 mph 19.6 mph N/A   Unknown
2:56 AM 30.9 °F 21.7 °F 27.0 °F 85% 29.65 in - NNW 11.5 mph 23.0 mph N/A   Unknown
3:56 AM 30.0 °F 19.5 °F 27.0 °F 88% 29.66 in - NNW 13.8 mph 19.6 mph N/A   Unknown
4:56 AM 30.0 °F 21.7 °F 28.0 °F 92% 29.66 in - NW 9.2 mph 18.4 mph N/A   Unknown
5:56 AM 30.0 °F 25.2 °F 28.9 °F 96% 29.67 in - Variable 4.6 mph - 0.01 in   Unknown
6:56 AM 30.0 °F 21.1 °F 28.9 °F 96% 29.68 in - NW 10.4 mph 18.4 mph 0.01 in   Unknown
7:56 AM 30.9 °F 22.8 °F 30.0 °F 96% 29.70 in - NW 9.2 mph - 0.01 in   Unknown
8:56 AM 30.9 °F 26.2 °F 30.0 °F 96% 29.70 in - Variable 4.6 mph - 0.02 in   Unknown
9:56 AM 32.0 °F 22.5 °F 30.0 °F 92% 29.71 in - NW 12.7 mph 18.4 mph 0.02 in   Unknown
10:56 AM 33.1 °F 24.9 °F 30.9 °F 92% 29.72 in - NW 10.4 mph 18.4 mph 0.01 in   Unknown
11:56 AM 34.0 °F 26.0 °F 32.0 °F 92% 29.72 in - NNW 10.4 mph 16.1 mph 0.01 in   Unknown
12:56 PM 35.1 °F 27.4 °F 33.1 °F 92% 29.73 in - NNW 10.4 mph - N/A   Unknown
1:56 PM 36.0 °F 28.5 °F 33.1 °F 89% 29.73 in - NW 10.4 mph 19.6 mph 0.01 in   Unknown
2:56 PM 35.1 °F 27.9 °F 32.0 °F 89% 29.74 in - NNW 9.2 mph - 0.04 in   Unknown
3:56 PM 35.1 °F 27.9 °F 32.0 °F 89% 29.76 in - North 9.2 mph - 0.01 in   Unknown
4:56 PM 33.1 °F 28.7 °F 32.0 °F 96% 29.78 in - NNE 4.6 mph - 0.03 in   Unknown
5:56 PM 34.0 °F - 33.1 °F 96% 29.80 in - Calm Calm - 0.01 in   Unknown
6:56 PM 34.0 °F 28.8 °F 33.1 °F 96% 29.82 in - NNW 5.8 mph - N/A   Unknown
7:56 PM 34.0 °F 29.8 °F 33.1 °F 96% 29.84 in - North 4.6 mph - N/A   Unknown
8:56 PM 34.0 °F - 32.0 °F 92% 29.86 in - Calm Calm - N/A   Unknown
9:56 PM 33.1 °F 30.0 °F 32.0 °F 96% 29.87 in - NNW 3.5 mph - N/A   Unknown
10:56 PM 33.1 °F - 32.0 °F 96% 29.87 in - Calm Calm - N/A   Unknown
11:56 PM 33.1 °F - 30.9 °F 92% 29.86 in - Calm Calm - N/A   Unknown